Location: Unspecified
(48.2082°N, 0.0000°E)
Time: 14:57:40
(UTC+00:00)

S-56A Canister/Altair - Pass Details

Date: 16 August 2020
Orbit: 633 x 2499 km, 38.9° (Epoch: 23 September)

Event Time Altitude Azimuth Distance (km) Brightness Sun altitude
Exits shadow 03:09:31 - 170° (S) 2,623 9.9 -15.8°
Reaches altitude 10° 03:12:06 10° 145° (SE) 2,457 10.0 -15.5°
Maximum altitude 03:12:52 10° 137° (SE) 2,495 10.2 -15.4°
Drops below altitude 10° 03:13:39 10° 129° (SE) 2,573 10.3 -15.3°
Sets 03:19:47 0° 91° (E) 4,043 12.0 -14.5°
